User: anonymous   Login
Location: Theydon Bois
(51.6750°N, 0.1050°E)
Time: 20:30:19
(UTC+01:00)
Language:

Cosmos 1452 Rocket - Orbit

View from above orbital plane
View from above orbital plane
View from above satellite
View from above satellite

Ground track
Ground track

The orbit data is extracted from the following two-line orbital elements,

1 13992U 83031B   18115.56150867 -.00000006 +00000-0 +69255-5 0  9992
2 13992 074.0519 154.2112 0004058 047.7355 312.4141 14.36115247833369
Epoch (UTC): 25 April 2018 13:28:34
Eccentricity: 0.0004058
inclination: 74.0519°
perigee height: 768 km
apogee height: 774 km
right ascension of ascending node: 154.2112°
argument of perigee: 47.7355°
revolutions per day: 14.36115247
mean anomaly at epoch: 312.4141°
orbit number at epoch: 83336

The dashed part of the orbit path shows where the satellite is in the earth's shadow,  

DLR